Location: Unspecified
(44.0704°N, 88.6889°W)
Time: 06:13:18
(UTC+02:00)

Okean 3 - Pass Details

Date: 25 March 2019
Orbit: 576 x 602 km, 82.5° (Epoch: 19 April)

Event Time Altitude Azimuth Distance (km) Brightness Sun altitude
Exits shadow 11:18:03 - 183° (S) 2,628 6.6 -16.8°
Reaches altitude 10° 11:19:45 10° 181° (S) 1,938 5.9 -16.6°
Maximum altitude 11:24:01 76° 97° (E) 625 3.6 -15.8°
Drops below altitude 10° 11:28:21 10° 12° (NNE) 1,956 6.5 -15.1°
Sets 11:30:34 0° 10° (N) 2,863 7.4 -14.7°
